Temp
49 43 38 44 46 45 43 41 40 44 46 43 43 44 51 51 51 46 48 49 50 50 48 50 51 49 48 47 48 48 48 47 45 43 41 41 41 43 47 50 52 53 54 54
44 39 48 51 50 47 43 39 40 44 46 44 44 45 50 48 47 46 47 46 48 48 47 49 48 48 48 47 47 47 48 47 46 43 43 43 42 49 49 50 51 53 53 52
40 45 50 49 44 45 42 40 39 40 43 44 42 42 43 47 48 47 48 47 48 48 47 47 47 46 45 44 44 46 46 46 45 45 44 44 44 45 48 49 49 51 53 52
44 47 47 43 44 46 39 42 42 41 37 34 41 32 41 43 44 47 48 48 47 49 48 48 47 45 44 43 43 45 46 46 46 44 43 41 43 42 47 47 47 46 51 49
39 41 41 41 44 45 41 43 40 38 34 32 34 31 40 42 43 46 46 47 48 49 49 48 47 47 44 43 41 42 44 45 44 44 43 41 42 46 48 48 48 50 49 50
38 44 43 43 43 43 44 41 39 36 33 23 33 32 37 41 47 45 46 48 49 48 47 47 46 46 43 42 41 41 43 43 44 43 42 46 44 44 44 45 46 48 48 48
36 38 41 45 38 41 39 34 23 25 22 26 33 30 40 47 49 50 48 48 48 48 47 45 45 43 41 41 40 42 42 42 43 42 42 47 45 45 43 41 41 43 45 46
30 27 37 42 39 37 35 35 28 24 24 28 31 31 43 46 48 50 50 50 49 47 48 46 45 43 42 42 40 41 41 41 42 41 41 45 45 42 42 41 40 41 43 45
31 30 37 38 39 39 35 30 37 27 19 25 33 39 46 44 46 48 48 49 48 48 47 47 45 43 41 40 40 40 40 41 41 41 41 42 42 42 41 43 43 41 42 46
38 26 30 35 38 37 35 39 31 27 22 22 29 34 38 41 46 47 47 48 48 48 47 46 44 42 41 40 39 39 40 40 40 40 41 45 41 41 43 44 42 44 45 46
37 34 27 32 29 31 31 28 33 34 31 26 22 34 45 47 49 48 47 49 49 48 47 45 43 42 40 39 38 38 39 40 40 43 45 44 41 41 42 44 44 45 45 45
42 32 21 27 32 36 34 35 36 30 28 26 27 32 48 49 50 49 49 51 49 48 47 45 42 40 38 38 37 37 38 39 39 42 44 44 41 44 44 43 44 44 44 45
42 30 20 25 29 31 31 35 37 37 32 24 27 34 46 44 46 49 48 48 47 47 45 43 40 38 37 37 37 36 38 38 39 41 44 43 40 41 43 43 43 43 43 44
45 30 27 27 33 31 26 31 37 35 23 29 29 34 44 38 40 46 44 44 44 44 44 42 39 38 37 37 36 36 37 38 38 41 43 41 40 41 42 42 42 43 43 44
40 28 25 28 32 33 32 30 32 33 40 34 34 34 45 44 40 39 44 44 42 37 37 37 36 36 36 35 35 36 37 37 38 41 39 39 41 42 42 42 42 42 43 43
38 28 28 26 28 30 28 32 29 32 28 29 28 32 46 51 45 38 42 42 43 42 38 36 35 35 35 33 34 36 34 36 40 40 37 41 41 41 40 41 41 42 42 42
33 30 28 23 26 28 27 29 31 31 33 38 33 47 47 45 46 46 46 45 44 46 45 39 38 36 35 35 36 36 36 36 40 37 36 38 38 38 39 40 41 40 41 42
31 31 31 26 26 24 35 37 39 40 41 42 42 45 51 50 51 49 50 48 48 48 47 45 40 38 35 34 33 36 36 36 37 36 38 38 38 37 37 37 40 40 40 41
37 33 29 27 24 33 40 35 36 36 41 45 45 50 51 48 45 51 51 51 52 49 47 45 42 39 37 36 35 36 34 34 37 35 37 36 37 36 37 37 37 37 39 39
36 37 32 29 26 21 37 43 43 44 33 47 48 48 50 47 42 53 49 47 48 47 44 41 38 37 38 36 37 36 34 35 35 35 36 36 36 36 36 36 35 35 36 35
29 30 28 30 28 29 40 40 46 32 38 48 49 50 48 47 54 49 45 44 43 42 41 38 38 37 38 36 36 35 34 34 34 34 35 35 36 36 36 35 35 35 35 35
28 27 27 29 27 25 41 39 40 50 50 49 47 48 50 52 47 43 44 41 40 39 38 37 37 36 36 35 37 34 34 34 33 33 34 34 34 34 35 34 34 34 35 34
29 34 30 32 33 43 42 43 47 46 45 45 46 46 49 47 45 44 43 40 39 38 37 34 34 32 32 34 36 34 31 33 33 35 34 33 33 33 33 34 33 34 34 35
34 38 35 34 37 40 42 45 45 47 48 46 48 47 48 47 46 44 42 40 38 35 34 31 32 32 30 30 31 34 32 33 34 34 33 32 32 30 31 32 32 33 33 32
35 36 31 34 37 38 43 44 47 48 47 46 46 47 48 47 46 46 40 37 36 34 31 32 33 32 32 30 30 32 32 34 33 32 30 29 28 30 30 29 30 30 30 30
31 33 33 35 40 45 48 50 50 46 47 49 45 43 42 43 44 41 38 37 35 33 30 30 31 31 30 32 30 31 33 35 33 30 30 31 30 29 29 28 28 36 35 36
MSLP
1014.04 1014.41 1014.15 1013.69 1013.49 1013.30 1013.15 1013.34 1013.44 1013.03 1013.30 1013.56 1013.02 1012.16 1010.47 1010.20 1010.17 1010.50 1010.79 1011.28 1011.26 1011.82 1012.47 1012.62 1013.23 1013.66 1014.15 1014.67 1014.99 1015.29 1015.63 1015.82 1015.98 1016.28 1016.55 1016.47 1016.47 1016.10 1015.78 1015.52 1015.33 1015.26 1015.04 1014.92
1014.68 1014.20 1013.63 1013.36 1013.27 1013.28 1013.31 1013.48 1013.60 1013.33 1013.59 1013.78 1012.96 1011.67 1010.10 1009.71 1009.85 1010.22 1010.40 1010.60 1011.02 1011.89 1012.70 1013.13 1013.44 1013.66 1014.18 1014.73 1015.04 1015.33 1015.53 1015.79 1016.00 1016.30 1016.35 1016.32 1016.26 1015.97 1015.53 1015.42 1015.33 1015.22 1015.13 1015.05
1014.54 1014.04 1013.73 1013.53 1013.52 1013.63 1013.72 1013.78 1013.94 1014.34 1014.05 1013.84 1013.49 1011.61 1010.35 1009.90 1009.84 1010.23 1010.38 1010.58 1011.24 1011.76 1012.50 1012.97 1013.36 1013.87 1014.35 1014.78 1015.08 1015.38 1015.62 1015.75 1016.02 1016.19 1016.20 1016.27 1016.11 1015.89 1015.59 1015.54 1015.41 1015.39 1015.13 1015.07
1014.64 1014.22 1014.20 1014.03 1013.92 1013.98 1014.39 1014.27 1014.53 1014.85 1015.08 1015.11 1014.09 1013.20 1011.09 1010.22 1010.29 1010.54 1010.68 1010.88 1011.43 1011.76 1011.97 1012.48 1013.25 1013.93 1014.51 1014.95 1015.21 1015.35 1015.54 1015.77 1016.02 1016.16 1016.38 1016.55 1016.37 1016.30 1015.93 1015.69 1015.53 1015.47 1015.28 1015.26
1014.76 1014.85 1014.84 1014.68 1014.56 1014.43 1014.82 1015.02 1015.32 1015.69 1016.09 1016.06 1014.97 1014.53 1010.86 1010.43 1010.45 1010.41 1010.68 1010.97 1011.46 1011.65 1011.78 1012.40 1013.28 1014.03 1014.71 1015.05 1015.38 1015.48 1015.56 1015.85 1016.05 1016.14 1016.37 1016.53 1016.41 1016.24 1015.98 1015.62 1015.51 1015.47 1015.43 1015.31
1015.39 1015.46 1015.42 1015.24 1015.45 1015.38 1015.61 1015.84 1016.22 1016.60 1017.05 1016.78 1015.27 1014.51 1011.34 1010.29 1009.41 1009.70 1010.22 1010.69 1011.29 1011.74 1011.91 1012.62 1013.38 1014.13 1014.77 1015.00 1015.43 1015.61 1015.76 1015.95 1015.99 1016.17 1016.30 1016.25 1016.28 1016.19 1016.10 1015.93 1015.82 1015.63 1015.54 1015.52
1016.01 1015.95 1015.88 1015.74 1016.15 1016.32 1016.27 1016.58 1017.42 1018.00 1018.04 1017.04 1015.49 1014.76 1010.78 1009.16 1008.74 1008.61 1009.63 1010.50 1011.12 1011.57 1012.03 1012.75 1013.41 1014.04 1014.58 1015.04 1015.33 1015.52 1015.77 1016.03 1016.01 1016.19 1016.06 1016.11 1016.14 1016.28 1016.31 1016.31 1016.21 1015.98 1015.81 1015.79
1016.11 1016.55 1016.27 1016.06 1015.93 1015.94 1016.55 1016.54 1017.05 1017.63 1018.28 1016.86 1015.52 1013.60 1009.97 1008.86 1008.45 1008.68 1009.16 1010.00 1010.97 1011.48 1011.73 1012.38 1013.12 1013.75 1014.53 1015.05 1015.30 1015.44 1015.74 1015.94 1016.11 1016.04 1016.12 1016.16 1016.37 1016.30 1016.28 1016.23 1016.23 1016.21 1016.10 1015.95
1015.51 1016.31 1016.75 1016.74 1016.64 1016.58 1016.68 1016.71 1016.16 1017.01 1018.59 1016.93 1014.27 1012.01 1009.54 1009.03 1008.93 1009.03 1009.52 1010.13 1010.86 1011.20 1011.65 1012.22 1012.99 1013.64 1014.34 1014.84 1015.20 1015.54 1015.73 1015.92 1016.12 1015.95 1016.27 1016.32 1016.38 1016.36 1016.44 1016.30 1016.20 1016.24 1016.07 1015.72
1014.06 1015.95 1017.39 1017.55 1017.22 1016.98 1016.48 1016.68 1016.58 1016.84 1017.81 1016.66 1013.99 1012.22 1009.94 1009.14 1008.91 1009.07 1009.62 1009.96 1010.52 1010.94 1011.58 1012.20 1012.93 1013.73 1014.47 1014.79 1015.03 1015.56 1015.73 1015.97 1016.10 1016.09 1016.12 1016.13 1016.20 1016.55 1016.39 1016.18 1016.09 1016.05 1015.83 1015.52
1013.97 1015.24 1018.07 1018.08 1017.56 1016.81 1017.10 1016.50 1016.35 1016.03 1016.09 1015.50 1014.06 1010.99 1008.38 1007.95 1007.91 1008.33 1008.93 1009.40 1009.95 1010.64 1011.44 1012.00 1012.81 1013.68 1014.49 1014.73 1015.04 1015.65 1015.87 1016.01 1016.12 1015.99 1015.91 1016.20 1016.39 1016.52 1016.37 1016.12 1015.96 1015.79 1015.47 1015.18
1014.09 1015.25 1017.46 1017.40 1017.34 1016.92 1016.54 1015.82 1015.40 1015.36 1015.89 1015.24 1013.67 1010.48 1007.94 1007.34 1007.39 1007.77 1008.21 1008.81 1009.58 1010.42 1011.13 1011.86 1012.67 1013.65 1014.68 1015.04 1015.31 1015.71 1016.04 1016.11 1016.14 1015.91 1016.00 1016.31 1016.42 1016.53 1016.21 1016.12 1015.84 1015.71 1015.21 1014.68
1014.03 1015.04 1016.91 1017.60 1017.64 1017.05 1016.41 1015.48 1014.85 1014.81 1014.81 1014.49 1013.33 1010.26 1008.20 1007.76 1007.90 1007.83 1008.12 1008.92 1009.71 1010.52 1011.23 1011.95 1012.92 1013.78 1014.49 1015.13 1015.41 1015.78 1016.08 1016.27 1016.21 1016.02 1016.13 1016.37 1016.41 1016.25 1016.04 1016.10 1015.85 1015.53 1014.74 1014.91
1014.18 1015.12 1015.98 1016.24 1015.34 1014.78 1015.41 1014.50 1014.03 1014.08 1014.34 1013.47 1011.95 1010.06 1008.62 1008.29 1008.20 1008.40 1008.55 1008.89 1009.73 1010.60 1011.29 1011.97 1012.95 1013.59 1014.28 1014.91 1015.17 1015.77 1016.21 1016.40 1016.35 1016.23 1016.31 1016.44 1016.49 1016.21 1016.14 1015.93 1015.87 1015.53 1015.27 1014.63
1014.95 1015.45 1015.72 1015.46 1015.10 1014.72 1014.06 1013.72 1013.59 1013.58 1012.48 1012.25 1011.39 1010.27 1008.31 1007.64 1007.84 1008.22 1008.45 1009.05 1009.79 1010.42 1011.23 1011.74 1012.57 1013.47 1014.07 1014.74 1015.23 1015.65 1016.16 1016.59 1016.42 1016.36 1016.47 1016.50 1016.52 1016.35 1016.22 1016.05 1016.01 1015.87 1015.63 1015.32
1015.34 1015.55 1015.72 1015.36 1014.85 1014.39 1013.74 1012.75 1012.85 1012.92 1012.45 1011.70 1010.61 1009.41 1007.29 1006.63 1007.01 1007.72 1007.95 1008.74 1009.30 1009.67 1010.42 1011.09 1011.94 1013.09 1013.71 1014.30 1014.82 1015.55 1015.83 1016.43 1016.65 1016.54 1016.62 1016.58 1016.54 1016.65 1016.45 1016.35 1016.20 1016.05 1016.19 1016.12
1015.47 1015.54 1015.82 1015.13 1014.67 1014.08 1012.65 1010.92 1011.22 1011.18 1010.56 1010.01 1009.68 1007.44 1006.86 1006.68 1006.73 1006.42 1007.01 1007.79 1008.13 1008.38 1009.18 1010.24 1010.89 1012.19 1013.08 1013.75 1014.27 1015.17 1015.69 1016.03 1016.71 1016.88 1016.74 1016.87 1016.80 1016.87 1016.94 1016.88 1016.64 1016.71 1016.65 1016.67
1015.21 1015.42 1015.56 1015.37 1014.68 1012.79 1009.36 1008.45 1008.36 1008.03 1007.70 1007.80 1007.13 1006.07 1005.51 1005.48 1005.43 1005.58 1005.89 1006.26 1006.99 1007.44 1008.07 1008.92 1009.82 1011.43 1012.37 1013.46 1014.18 1014.96 1015.64 1015.83 1016.54 1017.15 1016.96 1017.09 1017.10 1017.07 1017.20 1017.28 1017.26 1017.28 1017.31 1017.40
1014.74 1014.74 1014.70 1014.28 1013.56 1010.41 1008.06 1008.09 1007.67 1007.43 1006.00 1005.54 1005.44 1004.90 1004.56 1004.90 1005.14 1004.90 1005.04 1005.10 1005.54 1006.35 1007.01 1007.74 1008.72 1010.42 1011.65 1012.92 1013.83 1014.68 1015.75 1015.83 1016.19 1017.01 1017.12 1017.21 1017.40 1017.36 1017.37 1017.70 1017.92 1018.09 1018.11 1018.37
1013.78 1013.92 1013.72 1013.17 1012.03 1009.81 1006.82 1005.83 1005.41 1005.90 1004.77 1003.85 1004.02 1003.72 1004.20 1004.96 1004.92 1003.87 1004.12 1004.50 1005.33 1005.92 1006.65 1007.64 1008.75 1010.11 1011.39 1012.57 1013.61 1014.80 1015.60 1016.14 1016.30 1016.70 1017.20 1017.27 1017.47 1017.60 1017.72 1018.07 1018.48 1018.74 1018.90 1019.17
1012.96 1012.96 1012.30 1011.83 1010.84 1008.10 1005.99 1005.56 1005.36 1005.20 1004.44 1002.29 1002.54 1002.23 1003.87 1004.49 1003.36 1003.45 1003.86 1004.80 1005.70 1006.36 1007.06 1007.92 1008.92 1009.85 1011.02 1012.10 1013.21 1014.35 1015.23 1016.04 1016.05 1016.75 1017.42 1017.60 1017.73 1017.90 1018.07 1018.30 1018.77 1019.14 1019.32 1019.68
1011.72 1011.97 1011.57 1011.14 1010.00 1007.41 1004.93 1004.97 1004.67 1003.45 1002.62 1002.52 1002.46 1002.75 1002.51 1001.98 1002.98 1003.70 1004.25 1005.30 1006.12 1006.80 1007.58 1008.33 1009.17 1010.01 1011.20 1011.92 1012.85 1014.01 1014.88 1015.48 1015.84 1016.43 1017.48 1018.07 1018.32 1018.49 1018.58 1018.82 1019.36 1019.74 1019.99 1020.46
1010.43 1009.52 1009.40 1008.84 1006.76 1005.45 1004.80 1003.65 1003.02 1003.04 1003.13 1002.92 1002.86 1002.81 1002.92 1003.21 1003.44 1003.94 1004.59 1005.45 1006.44 1007.26 1007.74 1008.49 1009.30 1010.23 1011.44 1011.81 1012.72 1013.38 1014.54 1015.63 1015.83 1016.54 1017.40 1018.16 1018.73 1019.07 1019.28 1019.52 1020.01 1020.45 1020.64 1020.95
1009.02 1008.03 1008.12 1007.76 1005.64 1005.43 1004.80 1003.82 1003.23 1002.73 1002.83 1002.85 1002.77 1002.82 1002.95 1003.35 1003.60 1004.13 1004.75 1005.42 1006.43 1007.53 1008.17 1008.69 1009.42 1010.46 1011.57 1011.83 1012.72 1013.33 1014.10 1015.16 1016.06 1016.36 1017.04 1017.59 1018.46 1019.53 1019.87 1019.97 1020.32 1020.55 1020.77 1021.17
1007.72 1007.55 1006.71 1006.14 1005.58 1005.07 1004.59 1003.77 1002.96 1002.54 1002.64 1002.81 1002.74 1002.97 1003.06 1003.60 1003.77 1004.45 1004.71 1005.56 1006.33 1007.21 1008.10 1008.85 1009.39 1010.14 1011.20 1011.47 1012.50 1013.49 1013.93 1014.94 1015.99 1016.54 1017.13 1018.04 1018.56 1019.31 1020.04 1020.57 1020.73 1021.14 1021.22 1021.32
1007.32 1006.74 1006.53 1005.02 1004.86 1004.32 1004.03 1003.51 1002.84 1002.91 1002.73 1002.66 1002.99 1002.99 1002.61 1003.99 1003.95 1004.62 1005.44 1005.48 1006.27 1007.00 1007.80 1008.78 1009.45 1010.17 1011.04 1011.33 1012.35 1013.33 1013.56 1014.58 1015.57 1016.70 1017.41 1018.15 1018.73 1019.09 1019.91 1020.76 1021.43 1021.58 1021.65 1021.55
Wind_Speed
3 3 7 9 8 1 2 2 4 5 2 2 8 10 20 8 7 7 7 7 7 7 4 8 7 8 8 6 7 6 5 3 2 2 2 2 1 2 2 2 4 5 4 5
3 7 7 4 4 3 2 1 5 1 2 2 7 16 12 3 2 3 3 2 5 8 6 7 8 6 6 6 6 6 5 4 2 2 1 1 2 1 2 2 3 3 4 5
6 1 2 3 2 3 3 4 2 3 7 3 7 8 3 1 3 2 1 0 7 10 9 7 7 7 6 7 6 6 5 4 3 3 2 2 2 3 2 2 2 3 4 4
5 1 3 2 3 5 3 1 2 2 5 3 3 7 7 3 3 4 5 4 7 8 6 6 7 6 7 6 7 7 5 4 3 4 3 3 1 1 2 2 1 3 3 4
6 4 3 3 2 1 4 2 3 2 0 3 2 3 9 3 5 7 8 7 8 8 9 8 8 7 7 6 6 6 4 3 3 3 4 2 2 2 3 2 4 3 2 4
2 1 1 2 3 3 5 3 4 4 3 3 3 6 8 4 6 4 5 7 8 8 6 7 7 7 6 6 6 5 4 3 3 4 4 2 2 2 3 4 3 3 2 3
2 3 0 2 5 5 1 5 3 6 5 6 2 2 12 5 4 8 11 9 9 8 8 8 8 8 7 7 6 5 4 3 3 5 3 1 1 2 3 3 3 4 3 2
7 6 8 4 4 6 6 6 7 7 4 4 3 7 6 1 2 5 8 8 7 8 7 8 8 7 7 7 7 6 5 4 4 4 2 0 3 1 2 1 1 3 2 3
6 4 2 4 3 2 5 5 2 8 2 4 4 8 7 1 1 5 7 8 9 8 8 8 7 8 8 8 8 7 6 5 5 2 2 2 2 3 3 3 2 2 3 3
4 2 3 4 2 1 2 2 4 3 3 4 5 5 8 6 9 8 8 9 9 8 7 7 7 8 6 7 7 6 6 6 4 3 1 2 2 4 2 2 3 3 4 4
4 4 4 2 7 8 3 2 3 3 5 7 2 8 7 9 10 12 10 10 9 9 8 8 7 7 7 7 7 6 6 6 4 3 3 1 3 4 3 2 3 4 5 5
4 4 4 7 3 2 2 5 7 6 6 2 4 9 3 7 6 9 11 10 7 7 8 8 8 9 7 7 7 7 5 6 4 3 3 2 3 3 3 3 4 4 5 6
4 3 3 6 4 2 6 7 5 2 3 7 8 8 1 3 4 4 8 8 8 8 8 7 8 8 8 7 7 7 6 5 4 4 3 3 3 4 3 4 5 5 7 2
2 1 6 7 3 5 6 9 13 7 4 5 7 4 6 7 7 6 6 7 9 8 8 7 7 8 8 7 8 7 5 5 5 5 4 3 3 4 4 4 5 5 4 5
2 4 3 5 5 3 5 6 11 17 17 9 6 9 7 9 11 9 7 5 7 7 7 8 8 8 8 8 7 6 6 5 5 5 4 4 2 2 3 4 5 5 7 7
1 4 2 5 3 3 6 9 8 12 3 6 1 7 10 8 6 5 9 9 9 10 10 8 7 8 11 10 9 7 7 7 5 4 5 3 4 3 4 5 6 7 8 9
5 3 1 7 1 2 10 11 11 7 6 13 14 24 4 5 9 9 10 10 11 10 9 11 13 12 11 12 12 10 8 7 6 4 5 3 3 5 5 4 7 8 9 8
6 5 3 4 2 9 5 2 5 18 13 19 7 10 14 7 8 7 9 10 12 9 10 10 10 11 10 9 8 8 7 9 7 5 5 4 3 5 5 6 8 8 7 8
9 5 4 5 5 12 15 4 8 10 11 18 22 20 9 4 0 8 10 10 11 9 8 8 10 12 12 13 11 12 7 8 9 6 5 5 5 6 6 8 6 5 8 8
14 10 6 3 5 11 1 3 6 6 8 7 19 21 17 6 5 14 8 6 7 8 7 9 11 11 14 12 13 12 10 9 9 8 6 5 5 6 7 7 6 4 7 8
8 8 15 12 8 10 8 4 6 7 6 5 15 18 10 11 15 2 7 6 6 6 8 9 12 14 14 14 14 13 11 10 7 7 6 6 5 6 6 6 4 5 8 9
10 9 7 6 7 17 7 4 11 9 8 5 2 6 16 15 6 6 8 8 9 9 9 9 11 12 12 14 14 13 13 8 8 9 7 5 5 4 5 7 5 5 6 9
6 8 7 10 9 4 5 4 5 2 5 3 1 2 6 8 8 8 8 9 8 8 9 7 10 12 10 12 12 15 9 10 10 10 8 5 5 4 4 6 6 5 4 5
5 8 6 2 8 9 9 7 5 6 8 2 3 2 5 5 6 8 7 7 8 7 8 6 12 12 12 9 7 8 13 12 12 13 10 9 8 5 4 4 3 3 4 4
6 6 4 8 7 5 9 8 8 12 6 6 2 2 4 4 7 7 8 8 8 9 7 9 11 12 13 12 10 10 13 13 11 10 9 7 6 6 6 4 4 3 1 2
4 6 6 11 5 10 14 12 13 8 9 7 3 4 1 8 9 6 7 6 7 9 8 8 8 10 11 12 11 11 12 13 13 10 7 7 7 8 7 7 6 9 8 9
Wind_Direction
213 125 213 213 204 165 123 222 263 272 223 266 247 275 280 263 267 224 229 243 228 196 141 126 122 123 115 123 131 140 135 155 99 43 18 25 345 321 348 346 320 311 332 338
60 231 224 143 134 177 163 264 280 283 163 260 300 288 296 297 97 141 115 327 156 124 138 130 136 133 150 156 145 140 122 91 88 106 220 173 242 291 246 303 301 317 352 357
166 210 162 179 152 164 217 188 220 239 323 267 301 294 323 344 92 86 125 50 129 155 160 166 153 169 156 155 155 125 121 92 87 65 23 16 353 343 0 15 1 345 345 348
236 269 188 171 208 146 233 163 121 45 38 257 18 283 300 213 219 207 215 158 163 179 164 159 167 165 152 137 121 118 100 90 96 72 57 36 75 359 332 301 302 314 6 347
236 166 178 180 174 215 212 96 105 99 7 6 315 76 270 169 231 233 211 207 211 184 157 160 164 141 134 131 120 125 119 97 100 93 89 48 41 345 319 319 344 68 5 359
112 290 283 132 67 42 147 93 52 56 75 9 244 125 280 208 206 196 195 196 195 194 160 124 126 136 130 126 120 126 125 128 121 100 94 48 34 347 341 2 359 16 13 350
3 219 191 164 89 7 93 80 344 350 10 219 9 85 246 265 254 185 178 190 196 171 152 152 163 159 151 152 144 143 122 135 134 113 125 105 254 3 35 39 7 340 356 347
158 291 174 182 206 177 183 168 160 200 203 247 16 241 252 255 72 151 159 176 178 179 182 184 190 169 161 160 149 140 138 142 111 120 88 286 23 0 70 77 5 307 334 322
148 278 347 41 352 82 201 196 176 103 23 51 218 278 298 139 203 136 157 157 187 192 185 179 165 160 152 152 147 150 143 142 123 127 68 3 58 355 12 30 356 311 291 280
217 34 344 318 321 261 167 307 87 359 145 237 288 276 240 213 225 216 207 195 201 200 185 177 160 153 152 146 135 137 145 144 147 120 171 59 26 27 355 4 332 309 286 277
132 130 304 34 207 186 153 255 222 141 160 171 181 256 213 206 207 203 204 205 199 188 179 177 161 147 145 141 138 144 152 145 144 162 102 36 10 340 334 358 315 305 285 277
205 114 170 201 263 329 290 216 179 140 233 244 150 272 214 186 214 186 201 198 187 176 182 174 155 148 148 151 145 153 171 140 149 132 112 64 9 341 354 7 335 319 288 302
188 232 41 339 347 350 215 205 208 136 94 203 143 252 282 283 259 223 182 159 157 165 160 156 142 160 159 161 153 154 165 153 148 121 121 96 36 340 2 20 344 333 318 280
73 136 190 197 234 131 184 212 202 168 137 187 217 259 228 248 224 233 204 177 175 184 178 174 164 173 163 165 158 154 164 152 146 134 133 100 37 348 9 17 12 356 344 352
148 234 181 252 265 232 213 215 200 210 216 192 227 205 236 219 213 215 218 191 175 196 197 191 184 175 168 159 157 153 155 150 158 128 119 121 80 20 19 39 44 29 39 39
133 255 130 282 292 258 261 243 195 228 296 306 283 274 223 243 145 199 219 206 215 214 214 202 182 173 169 165 160 156 154 151 160 134 128 138 96 54 45 48 54 55 60 57
161 163 98 266 327 322 285 202 196 194 207 204 227 237 143 249 240 202 211 204 214 206 198 197 189 185 172 168 160 161 159 140 143 141 135 106 100 100 70 65 73 64 62 69
175 165 129 259 2 231 237 192 223 209 217 207 217 238 228 216 223 228 212 190 219 208 197 198 176 171 163 154 140 137 148 140 136 152 132 123 110 102 97 73 71 66 61 65
201 162 187 205 214 296 289 207 160 178 248 209 217 236 226 175 34 270 208 208 211 191 191 185 162 157 154 156 150 144 149 147 137 158 148 137 132 113 98 92 80 59 78 69
196 214 198 176 218 225 232 199 186 145 263 227 203 225 217 149 218 250 173 196 175 164 161 150 137 140 148 151 147 146 153 159 155 159 155 141 133 117 110 104 101 84 90 86
180 199 216 217 245 267 235 161 142 151 250 231 191 217 156 200 221 182 138 128 135 142 142 128 139 151 159 149 149 152 152 174 155 138 138 133 125 112 108 103 93 99 96 90
172 176 202 208 210 257 186 100 210 236 257 330 319 214 206 215 155 168 156 151 153 149 139 143 141 145 153 151 154 154 162 165 143 128 121 111 111 114 110 104 92 84 95 98
195 194 185 190 218 267 235 215 253 280 257 236 267 318 223 192 203 179 173 166 160 163 149 143 144 139 156 156 162 155 155 149 142 131 125 107 93 93 87 110 107 102 92 114
248 193 202 157 239 241 263 273 254 246 261 304 259 234 208 237 190 186 168 164 159 165 161 145 141 154 163 151 144 155 146 146 152 145 144 141 135 113 83 86 82 110 116 111
197 133 209 258 252 316 293 273 268 297 297 277 229 237 260 216 210 208 176 180 169 159 149 159 162 162 169 156 148 155 147 148 149 146 142 138 120 118 107 70 112 101 39 121
175 204 203 238 220 224 250 257 265 263 272 299 217 283 140 216 204 173 213 172 167 162 152 154 160 159 164 156 151 157 153 151 146 141 145 151 143 138 131 114 89 65 76 113